Vorticity
3 3 3 3 3 3 4 4 4 5 5 5 6 6 7 7 7 7 6 6 5 5 6 9 10 9 7 5 7 5 5 4 6 9 11 17 1 -4 12 3 -1 12 17 16 6 5 5 4 5 3 4 4 5 5 3 2 0 4 6 8 10 6 3 4 8 8 5 5 6 6 1 4 8 6 7 7 5 7 7 9 7 5 7 6 6 6 7 10
3 2 2 2 2 2 2 2 2 2 3 3 4 4 4 6 6 7 7 6 6 5 5 6 9 11 9 6 6 6 6 3 4 8 8 15 11 -0 6 7 -1 1 13 16 6 6 5 3 4 3 3 2 4 6 3 2 2 2 -1 0 6 3 -2 2 11 13 7 6 9 6 5 8 7 5 7 6 7 9 8 11 9 6 7 7 7 6 7 11
5 5 5 5 4 4 3 3 3 2 2 2 2 2 2 3 4 5 6 7 6 6 5 5 6 9 11 9 7 6 6 4 3 6 6 10 16 10 6 8 5 -1 7 15 8 6 6 5 3 2 2 2 2 5 4 2 1 3 1 -2 3 5 3 1 6 7 3 5 8 6 5 4 3 5 7 8 9 10 8 7 6 7 8 9 8 4 7 11
7 7 7 7 7 7 7 6 6 5 4 4 3 2 2 1 2 3 3 5 6 7 7 5 5 6 9 11 9 7 5 5 4 5 6 7 12 16 11 6 5 2 5 15 12 5 6 5 4 2 1 2 1 1 3 4 3 3 3 3 3 4 5 3 3 4 0 1 6 7 6 2 1 3 5 9 10 7 7 3 3 8 9 8 7 4 5 10
8 8 8 8 8 7 7 7 8 7 7 7 6 5 4 3 2 2 1 2 3 5 7 6 6 5 6 9 10 10 7 5 6 4 5 6 9 13 16 8 1 0 3 12 16 10 7 3 5 5 3 2 1 2 4 3 4 2 1 4 5 5 5 4 3 7 7 5 7 8 6 2 2 2 5 10 6 4 8 5 3 8 10 9 8 5 5 8
9 9 9 8 8 8 8 8 8 8 8 7 8 7 7 7 5 4 3 2 1 2 4 5 7 6 5 6 9 11 9 7 7 5 4 5 6 8 14 14 4 -0 -1 4 13 16 14 8 4 3 5 5 1 3 3 1 3 4 3 4 6 7 5 2 -0 6 13 12 10 6 3 3 3 3 7 9 5 4 7 6 5 9 11 11 11 9 7 7
11 11 10 10 10 9 9 9 8 8 8 8 8 8 7 8 8 7 6 4 3 2 1 2 5 7 6 6 6 9 10 9 8 6 6 5 5 6 10 14 12 6 1 0 3 10 16 14 7 2 5 6 3 4 3 2 3 4 5 4 5 6 3 4 2 4 10 10 7 3 3 7 5 5 8 6 5 7 6 3 6 11 10 10 12 13 10 9
13 13 12 12 12 12 11 11 10 9 9 9 8 8 8 8 8 8 8 7 6 5 3 2 2 3 6 7 6 6 8 11 10 7 6 5 6 6 7 10 14 13 8 3 -0 1 10 14 11 5 4 3 2 5 5 5 5 5 6 4 5 6 5 5 3 5 8 5 0 -1 6 9 4 5 8 6 7 8 5 3 8 12 10 8 11 13 12 10
11 12 12 12 12 12 12 12 12 11 11 10 10 9 9 9 8 7 8 8 7 7 7 5 3 2 3 5 7 7 5 7 11 10 7 6 5 6 7 7 11 14 13 7 2 0 4 9 11 7 3 1 1 4 5 5 7 8 7 5 5 5 5 4 2 4 6 6 4 3 8 8 3 5 7 6 7 7 5 5 9 13 10 8 10 13 14 10
8 9 9 9 10 11 11 11 11 11 11 12 12 10 9 10 9 8 8 8 8 7 7 7 6 4 2 2 5 7 5 5 8 10 10 8 6 6 7 7 8 12 15 12 4 0 0 2 7 8 5 2 2 4 4 7 9 6 2 2 3 4 4 3 2 3 3 3 6 9 8 5 3 5 7 5 4 7 9 7 9 10 6 6 8 11 15 13
5 5 5 6 6 7 8 9 10 10 10 11 11 11 10 11 10 10 9 9 9 8 7 7 7 7 6 3 3 4 6 6 6 8 10 9 8 7 7 8 7 9 13 15 11 4 2 2 4 7 8 6 4 4 3 7 9 4 1 2 3 4 6 5 4 5 4 1 5 10 8 6 5 4 6 5 3 8 10 6 7 6 3 6 7 8 14 14
4 4 5 5 5 5 5 5 7 8 8 9 10 10 9 10 10 11 11 10 10 9 8 8 7 7 7 7 5 3 3 6 6 6 8 9 8 7 7 8 7 7 9 14 14 8 3 3 2 3 6 7 6 6 5 4 3 3 3 4 4 5 5 6 6 7 8 6 5 6 7 9 8 4 6 5 5 8 7 2 3 4 3 6 6 5 10 13
5 5 5 5 5 5 6 6 6 6 6 7 8 9 9 10 9 9 10 11 10 9 10 10 9 8 7 8 7 4 2 3 5 5 6 8 7 7 7 7 7 5 6 10 13 11 5 3 3 2 3 5 5 7 8 4 1 2 4 4 4 5 5 3 4 5 8 9 5 1 2 7 7 4 6 5 2 4 6 5 2 4 6 6 7 6 6 10
4 4 4 5 6 6 7 7 7 8 7 6 7 7 7 9 9 9 9 10 11 9 9 10 11 10 8 9 8 7 6 2 3 5 6 6 6 8 8 6 7 6 5 6 10 13 11 7 4 2 2 4 4 5 7 5 2 2 4 6 3 4 6 3 3 5 6 7 8 7 2 5 8 4 3 2 -0 1 6 7 5 6 7 6 7 7 6 7
5 5 6 6 7 8 8 8 9 9 9 9 9 8 7 7 8 9 9 10 9 8 9 9 11 11 10 13 10 7 8 6 4 4 5 6 5 6 8 8 7 7 6 4 6 11 14 12 6 4 3 2 2 5 7 7 6 2 1 6 6 5 6 5 5 5 5 3 7 15 12 9 10 6 1 -0 3 5 4 5 7 9 5 5 8 7 7 7
7 7 7 7 8 8 7 8 8 8 8 8 9 9 8 8 8 8 9 11 10 7 8 7 9 11 10 15 14 7 8 9 7 4 3 5 5 3 4 8 8 7 7 5 4 6 11 14 12 7 3 0 -0 2 6 7 7 4 4 7 6 5 6 4 6 4 3 4 5 12 15 11 8 5 1 -0 6 8 2 2 10 12 4 2 6 7 7 7
8 8 8 8 9 10 9 9 9 8 8 7 7 8 7 8 9 8 8 10 10 9 9 6 6 8 8 12 14 10 9 10 10 8 5 4 4 4 3 5 9 10 9 7 5 5 7 12 14 12 6 3 1 -2 3 10 10 6 7 11 8 7 7 3 4 3 3 5 4 8 14 12 5 2 3 2 5 6 0 -0 7 10 4 1 4 4 7 9
6 5 5 5 6 7 10 12 12 11 10 9 8 7 6 6 7 8 10 11 9 8 9 8 6 4 6 9 12 12 9 10 13 11 9 6 4 5 3 2 5 8 10 8 7 6 5 9 13 13 10 6 2 -3 -2 7 10 4 3 8 7 7 7 4 4 3 3 4 3 7 13 15 9 3 6 5 2 2 1 2 4 6 5 4 3 1 3 7
5 5 4 4 3 4 7 10 13 15 14 13 12 11 9 8 7 6 8 10 10 9 8 9 8 6 5 6 9 12 10 10 14 12 10 9 6 4 3 2 2 4 7 8 9 8 5 6 8 10 12 11 7 0 -2 2 4 3 2 5 5 4 4 3 4 3 4 4 4 6 8 13 13 6 7 7 2 -1 1 4 4 6 8 7 3 0 1 4
7 7 7 7 6 7 9 11 13 15 15 16 16 16 15 13 13 11 11 10 8 8 10 9 8 9 8 5 6 9 10 10 12 14 12 10 9 6 4 4 2 2 5 4 7 10 9 7 5 8 16 19 16 8 5 4 1 -0 2 6 6 6 6 4 4 4 4 5 5 6 5 10 16 10 6 6 3 -0 2 6 6 7 10 7 3 2 0 3
8 8 9 10 10 11 13 14 16 16 17 17 16 16 17 17 17 15 16 19 14 8 10 11 8 10 10 8 5 5 8 9 9 13 13 12 11 8 5 5 3 3 4 3 5 9 11 9 5 7 12 16 17 14 11 8 4 2 -0 3 5 6 9 7 4 4 4 6 6 7 8 10 15 12 5 5 4 2 4 10 10 8 11 10 6 6 1 2
11 11 10 12 12 13 15 16 16 16 17 18 16 16 16 16 18 15 13 17 20 13 10 12 10 10 11 10 7 4 5 8 8 9 12 14 12 10 7 4 5 5 4 3 3 8 10 8 7 7 7 10 13 15 15 11 7 6 3 3 6 6 9 8 5 4 3 6 8 10 10 9 13 10 4 7 7 4 6 9 7 4 9 12 10 11 5 1
12 12 13 17 18 19 20 20 20 20 21 22 20 20 19 18 18 19 14 10 16 20 16 14 13 10 10 12 11 7 4 5 8 7 8 12 12 12 9 5 6 5 5 3 2 6 6 6 12 10 5 6 9 11 15 16 11 7 6 5 5 7 10 12 9 4 1 3 8 13 12 8 10 7 4 9 7 1 3 4 3 -0 2 6 6 8 5 -0
17 19 22 25 25 25 25 22 21 22 22 22 22 24 24 25 23 24 22 14 12 18 19 17 17 13 10 10 12 11 7 4 6 7 7 10 12 13 11 7 7 5 5 4 4 5 1 4 12 10 7 7 6 8 11 15 14 9 8 6 5 6 8 13 11 5 2 2 6 12 11 7 7 7 7 10 4 -3 -4 -2 2 1 1 3 1 3 3 -1
27 25 25 25 23 25 27 25 26 24 20 18 18 19 20 22 24 26 28 23 18 19 20 21 20 18 14 13 11 11 10 7 8 9 7 8 9 12 13 9 7 7 7 5 5 5 1 4 8 4 10 10 5 9 9 11 14 11 9 6 6 5 5 10 12 8 5 4 7 9 9 7 6 6 8 8 3 -2 -3 0 4 3 3 7 6 6 5 1
22 17 16 16 15 17 18 19 21 21 22 21 18 16 13 11 13 19 22 21 20 21 21 21 22 20 17 16 14 13 14 12 13 11 7 7 9 10 13 13 10 7 9 9 5 5 4 6 5 0 8 10 6 8 8 10 12 11 12 8 6 6 3 7 11 11 8 6 8 7 5 6 6 7 9 7 3 -2 -2 3 5 2 3 8 7 3 3 1
9 7 7 8 7 6 5 6 8 9 14 20 23 24 20 12 7 10 14 15 17 21 23 23 25 26 20 17 17 15 14 15 17 16 9 8 11 10 10 12 13 8 7 9 6 5 5 6 5 0 5 9 7 5 6 10 10 11 15 12 7 7 4 4 6 9 11 8 8 7 4 3 4 7 9 10 7 -1 -3 1 3 3 3 4 4 2 2 1
7 8 9 10 7 5 2 1 3 5 6 8 15 23 26 23 15 11 13 14 13 13 17 20 24 28 24 22 22 16 12 12 17 20 14 10 10 12 12 11 13 12 8 9 7 6 7 7 5 0 4 9 7 4 7 10 9 11 16 13 10 8 4 3 3 5 10 9 7 7 4 1 3 6 8 13 12 0 -2 1 3 6 5 -0 -3 -2 0 1
7 8 10 11 12 12 9 5 3 3 4 5 8 14 22 28 25 20 15 14 14 11 12 14 18 22 21 21 23 21 18 14 16 20 16 14 13 11 14 12 9 11 10 10 10 8 8 9 6 2 3 7 5 5 9 9 7 11 13 12 14 10 4 5 4 3 7 7 5 6 5 1 4 6 4 11 16 8 5 6 5 6 5 -0 -4 -3 -0 1
2 4 5 6 9 12 12 11 10 6 3 5 6 6 13 21 27 29 23 17 16 15 15 14 13 17 20 20 18 18 20 16 18 23 16 13 16 13 12 14 10 8 9 10 10 8 8 8 7 5 3 2 2 5 9 8 7 10 9 10 14 12 7 6 6 5 3 1 3 6 6 1 5 12 4 4 20 23 14 9 8 6 2 -2 -4 -2 3 7
-1 2 2 4 7 8 9 9 11 12 8 6 4 1 2 7 16 25 30 29 21 14 13 14 13 12 13 18 18 15 16 14 16 27 22 13 16 15 12 13 13 10 8 9 10 11 9 7 6 6 3 1 1 4 6 6 9 10 6 7 11 11 9 7 8 7 -0 -1 5 7 6 1 6 16 6 0 19 27 16 9 9 9 7 2 -2 2 9 12
-3 1 3 6 6 7 7 5 5 9 10 10 11 8 2 0 0 3 13 25 29 26 19 13 14 15 11 13 16 15 15 14 12 22 26 18 15 16 13 11 11 9 7 6 8 10 9 8 8 6 4 2 0 3 5 4 8 10 6 5 9 9 9 10 8 4 -2 -0 6 7 5 -1 1 13 7 -1 16 27 21 13 11 13 13 8 6 8 13 12
-5 -1 5 7 6 7 9 7 6 6 8 11 13 14 12 8 1 -4 -3 3 16 29 30 19 12 12 14 13 13 13 15 17 15 18 25 22 17 18 16 12 11 10 9 7 6 8 10 11 9 6 5 3 0 3 5 4 6 9 6 5 6 7 9 10 7 3 -0 2 6 6 3 -6 -5 11 13 0 10 27 23 12 11 15 12 11 12 13 14 12
-1 -2 5 8 6 9 11 10 10 9 11 12 10 11 14 15 12 6 0 -3 0 10 22 29 23 12 10 11 12 11 12 16 16 17 23 23 18 20 19 15 13 13 11 9 7 7 8 8 7 7 6 4 2 2 4 6 7 9 7 6 7 8 10 12 8 4 2 1 5 4 -0 -6 -5 10 19 3 -0 18 21 13 14 13 7 6 4 3 9 12
9 3 4 6 6 10 14 14 14 12 11 11 10 9 10 14 18 17 10 4 1 -1 1 14 25 23 15 10 10 11 9 10 12 14 21 25 21 20 21 17 14 14 13 9 7 7 6 7 10 10 6 4 4 3 2 5 7 7 5 6 8 7 8 13 10 8 5 1 4 3 -3 -2 -4 4 19 12 0 8 14 16 17 8 -1 -3 -5 -5 0 8
15 10 6 7 9 13 15 15 13 12 11 12 12 11 9 9 14 20 20 14 9 4 -2 -3 8 21 24 16 9 10 10 8 8 10 14 22 24 20 21 20 15 14 14 10 8 7 6 8 12 12 8 6 5 3 2 4 6 8 7 6 7 5 8 13 12 11 7 -0 4 5 -1 -1 -3 -1 14 16 6 3 -0 7 17 10 -1 -5 -3 2 1 2
14 10 6 8 11 14 15 13 12 13 13 13 12 11 10 11 12 14 19 21 17 10 6 3 2 8 19 25 16 8 11 11 8 8 10 16 23 21 20 22 18 14 14 14 11 7 6 8 11 12 10 8 5 5 5 3 3 8 10 6 4 4 7 11 12 14 11 2 3 6 2 0 -0 2 11 13 10 8 0 2 13 15 8 -1 -5 0 5 6
13 7 5 8 12 14 14 12 13 15 14 14 13 10 10 13 15 14 14 18 20 17 14 10 8 7 10 24 26 12 9 13 7 6 10 14 20 22 19 20 21 17 14 14 13 9 7 8 9 11 12 9 6 6 8 4 1 5 10 6 3 6 7 8 9 11 12 8 5 6 5 1 0 3 11 11 8 9 9 8 12 14 13 11 7 4 3 6
12 8 8 11 13 15 14 14 14 16 16 15 12 11 14 15 15 15 16 16 16 16 14 7 8 13 10 19 32 21 7 11 8 4 9 12 15 20 19 17 20 20 16 13 13 12 9 7 7 9 11 11 8 6 7 7 3 3 7 5 4 6 7 9 11 8 10 11 8 8 7 4 2 1 7 14 10 5 5 9 12 11 8 13 19 15 4 0
10 11 12 12 14 15 16 16 16 16 15 13 12 13 16 17 16 16 17 19 16 11 10 9 9 15 15 22 38 30 10 9 9 4 7 11 13 18 20 17 16 20 20 15 11 12 11 6 5 9 11 10 10 8 6 8 8 7 6 4 4 5 2 6 11 8 7 10 11 10 8 8 8 3 3 11 14 9 4 4 7 8 8 8 12 15 13 5
9 12 13 14 17 18 17 17 16 15 13 12 13 15 17 17 15 17 18 17 15 9 9 13 13 18 27 34 43 35 16 11 11 5 6 10 13 17 20 17 13 16 22 21 13 11 13 9 3 8 12 9 9 10 7 6 7 7 7 5 5 6 1 2 8 7 5 6 8 9 9 9 10 8 6 7 12 14 7 5 7 6 8 10 6 8 14 12
9 12 15 15 16 16 16 16 15 14 14 12 13 15 18 16 14 17 19 15 12 10 11 15 19 30 36 33 39 38 23 15 14 9 8 10 14 17 19 18 14 11 16 24 20 12 12 12 5 5 10 8 10 14 10 8 7 6 8 6 5 6 3 2 5 6 6 5 4 5 9 14 13 10 9 6 8 15 10 5 7 7 6 7 7 5 7 8
11 14 16 12 10 12 15 16 14 14 13 12 15 16 15 14 15 18 18 14 10 9 14 20 28 38 32 18 29 42 32 21 18 12 10 11 13 17 19 18 14 11 11 16 24 20 13 13 8 6 9 9 13 16 13 11 8 7 9 7 5 6 5 4 1 1 7 8 5 4 9 17 17 10 9 5 4 13 17 11 7 7 6 4 4 6 4 2
13 13 12 9 10 14 16 16 14 13 13 14 16 16 12 12 17 20 17 13 12 12 19 28 30 31 22 10 20 35 30 23 21 16 13 11 10 14 21 19 13 14 13 10 18 23 18 15 11 8 7 6 12 19 15 11 9 8 10 9 7 6 5 8 3 -2 4 6 6 8 7 14 21 16 13 11 4 2 6 10 9 5 5 4 2 4 6 4
12 9 8 10 15 16 18 18 16 14 16 17 15 12 11 13 17 20 16 11 14 19 24 30 28 22 16 11 18 27 24 19 18 17 16 15 12 11 18 22 16 14 17 13 11 16 19 19 14 7 1 -1 9 18 13 9 7 6 7 8 8 7 5 7 6 3 4 1 4 9 3 12 27 21 13 16 14 7 3 7 13 9 6 6 4 4 7 5
9 8 9 13 17 17 20 20 18 20 20 17 14 11 11 14 15 16 16 13 18 23 25 26 27 24 23 20 18 20 21 17 15 15 14 16 17 12 13 21 20 16 20 19 11 10 16 19 17 13 4 -2 8 18 13 9 7 5 5 5 7 8 6 5 5 6 6 -0 3 5 -3 8 25 15 4 10 14 16 15 12 13 12 8 8 9 10 12 8
8 12 14 15 15 16 20 17 15 23 25 16 13 11 11 15 15 14 15 16 20 24 23 21 21 21 23 21 16 13 16 18 18 16 13 14 18 15 11 16 17 17 25 26 15 10 11 13 17 20 10 -2 5 17 15 11 10 8 5 5 7 7 6 7 5 5 7 5 4 4 -5 1 16 11 4 9 11 16 20 16 15 17 14 11 13 17 17 12
12 15 15 13 15 18 19 14 11 18 22 16 12 10 9 16 18 14 15 18 21 22 19 17 16 14 13 13 12 11 12 15 17 18 19 18 18 18 15 15 14 11 22 33 24 13 12 10 13 22 18 1 -0 13 16 11 11 12 7 4 9 9 5 8 6 3 8 8 4 5 -0 -1 14 19 14 15 16 17 17 14 16 17 13 10 13 18 18 12
16 16 13 12 16 19 16 11 9 14 18 17 14 9 9 16 19 16 15 17 20 23 20 13 10 9 9 9 10 11 11 11 9 10 18 20 19 20 18 19 19 9 13 32 32 18 15 12 8 17 24 9 -3 6 17 13 9 13 10 4 7 9 6 6 6 4 7 6 3 8 5 1 12 20 15 12 13 11 9 7 8 13 16 15 14 17 18 14
16 13 13 13 15 17 15 12 11 14 19 20 16 10 9 15 20 18 16 16 19 24 20 9 1 2 7 10 12 14 17 17 10 5 12 14 15 21 19 17 25 17 6 21 35 25 18 16 10 11 22 18 2 1 12 14 9 11 13 7 5 8 8 6 6 5 6 5 5 9 7 1 8 15 11 10 11 7 5 4 4 11 17 17 16 18 18 16
12 11 12 12 13 13 14 14 12 16 22 21 17 10 7 15 22 18 15 18 22 25 20 9 1 1 6 8 7 9 14 20 16 10 12 12 11 20 21 15 24 27 11 12 32 33 20 16 14 10 15 21 12 3 8 14 9 7 12 11 7 7 8 7 6 5 6 5 3 9 9 -1 0 12 12 8 7 4 3 5 5 9 14 15 16 16 12 10
9 9 10 12 14 15 16 16 16 19 21 20 17 11 7 13 22 20 17 19 24 27 24 17 14 13 13 12 12 11 12 16 16 13 15 16 12 16 21 18 19 26 19 11 26 36 25 15 16 13 12 17 17 12 8 9 8 9 13 13 9 6 7 7 6 4 4 5 4 8 8 -4 -4 12 15 7 7 8 9 9 6 4 7 11 12 10 9 10
Height
5860 5859 5859 5859 5859 5858 5858 5858 5857 5857 5856 5856 5856 5856 5856 5856 5855 5855 5854 5854 5854 5854 5854 5854 5854 5855 5855 5855 5856 5856 5856 5857 5857 5858 5859 5860 5862 5862 5864 5865 5865 5866 5867 5868 5870 5872 5873 5874 5875 5876 5877 5878 5879 5880 5881 5882 5884 5885 5886 5887 5887 5888 5888 5889 5890 5891 5892 5893 5893 5894 5894 5895 5895 5895 5895 5895 5896 5896 5896 5897 5897 5898 5897 5897 5897 5897 5897 5897
5857 5857 5857 5857 5856 5856 5856 5855 5855 5855 5854 5854 5854 5854 5854 5854 5854 5853 5853 5852 5852 5852 5853 5853 5853 5853 5853 5854 5854 5855 5855 5855 5856 5857 5858 5859 5860 5861 5862 5863 5864 5865 5866 5868 5869 5870 5872 5872 5874 5875 5876 5877 5878 5880 5881 5882 5883 5884 5885 5887 5887 5888 5888 5889 5890 5891 5892 5893 5893 5893 5894 5894 5895 5895 5895 5895 5895 5896 5896 5897 5897 5897 5897 5896 5897 5896 5897 5898
5855 5855 5854 5854 5854 5853 5853 5853 5853 5853 5852 5852 5852 5852 5852 5851 5851 5852 5851 5851 5850 5850 5851 5851 5851 5851 5851 5852 5852 5853 5854 5853 5854 5856 5856 5857 5858 5859 5860 5861 5862 5863 5864 5865 5866 5868 5868 5869 5871 5873 5874 5875 5877 5879 5880 5881 5883 5884 5885 5886 5887 5887 5888 5888 5889 5890 5892 5893 5893 5893 5893 5893 5894 5895 5895 5895 5895 5896 5896 5896 5897 5897 5897 5896 5896 5896 5897 5899
5852 5852 5851 5851 5851 5851 5850 5850 5850 5850 5850 5849 5849 5849 5849 5849 5849 5849 5849 5849 5848 5848 5849 5849 5849 5849 5849 5850 5850 5851 5852 5852 5852 5854 5855 5855 5856 5857 5859 5859 5860 5861 5862 5863 5864 5865 5866 5868 5870 5872 5873 5875 5876 5878 5880 5881 5882 5884 5884 5886 5887 5887 5888 5888 5889 5890 5891 5893 5893 5893 5893 5893 5893 5894 5895 5895 5895 5896 5896 5896 5897 5896 5896 5896 5896 5896 5897 5899
5849 5849 5848 5848 5848 5847 5847 5847 5847 5847 5847 5847 5847 5846 5846 5846 5846 5846 5847 5847 5846 5846 5846 5847 5847 5847 5847 5848 5848 5849 5849 5850 5851 5852 5853 5854 5855 5856 5857 5857 5857 5859 5860 5862 5863 5864 5866 5869 5871 5872 5874 5875 5877 5878 5879 5880 5881 5883 5883 5885 5886 5886 5887 5888 5888 5889 5890 5892 5893 5893 5892 5892 5893 5893 5894 5895 5895 5896 5896 5897 5897 5897 5897 5896 5896 5895 5896 5898
5847 5846 5846 5845 5845 5844 5844 5844 5844 5844 5843 5844 5844 5843 5843 5843 5843 5843 5843 5844 5844 5844 5844 5845 5845 5845 5845 5846 5846 5846 5847 5848 5849 5850 5851 5851 5852 5853 5855 5855 5856 5858 5859 5861 5862 5863 5866 5868 5870 5872 5874 5875 5877 5878 5877 5878 5880 5881 5883 5884 5885 5886 5886 5886 5888 5889 5890 5890 5892 5892 5892 5892 5892 5892 5893 5895 5896 5896 5896 5897 5897 5897 5897 5896 5896 5895 5896 5898
5844 5843 5843 5842 5842 5841 5841 5840 5840 5840 5840 5840 5840 5840 5840 5840 5840 5840 5840 5840 5841 5841 5842 5842 5843 5843 5843 5843 5844 5844 5844 5846 5847 5847 5848 5849 5851 5852 5853 5854 5854 5856 5858 5860 5862 5863 5865 5867 5869 5871 5872 5874 5876 5876 5876 5877 5879 5880 5882 5882 5884 5884 5885 5885 5887 5888 5889 5890 5891 5891 5891 5891 5892 5892 5893 5894 5895 5896 5896 5897 5897 5897 5897 5896 5896 5896 5896 5897
5842 5841 5840 5840 5839 5838 5838 5837 5837 5837 5837 5836 5836 5837 5837 5836 5836 5836 5836 5837 5837 5838 5839 5839 5840 5840 5841 5841 5841 5842 5842 5843 5845 5844 5845 5848 5849 5850 5851 5851 5852 5854 5856 5858 5860 5861 5863 5865 5867 5868 5870 5872 5873 5873 5874 5876 5878 5879 5879 5880 5881 5883 5883 5885 5886 5886 5888 5890 5891 5892 5891 5891 5891 5892 5893 5894 5895 5896 5896 5897 5897 5897 5897 5896 5896 5896 5897 5898
5839 5838 5837 5837 5836 5835 5835 5834 5833 5833 5833 5833 5833 5833 5833 5833 5833 5833 5833 5833 5834 5834 5835 5836 5837 5838 5838 5838 5839 5839 5839 5840 5842 5842 5843 5845 5846 5847 5848 5849 5850 5852 5853 5855 5857 5859 5861 5863 5864 5866 5868 5869 5870 5870 5872 5875 5877 5877 5875 5876 5878 5880 5882 5883 5884 5885 5887 5889 5891 5892 5891 5891 5891 5892 5893 5894 5895 5896 5896 5897 5897 5897 5897 5896 5896 5896 5897 5898
5837 5836 5835 5834 5833 5833 5832 5831 5830 5830 5830 5829 5828 5829 5829 5829 5829 5829 5829 5829 5830 5830 5831 5832 5833 5835 5835 5836 5836 5836 5836 5837 5839 5839 5840 5842 5843 5844 5845 5846 5848 5849 5850 5852 5854 5857 5860 5860 5861 5861 5863 5864 5866 5867 5870 5874 5874 5871 5871 5873 5876 5878 5881 5882 5883 5885 5887 5889 5890 5891 5892 5891 5890 5891 5892 5893 5894 5896 5896 5896 5897 5897 5897 5896 5897 5897 5897 5898
5834 5833 5832 5831 5831 5830 5829 5828 5827 5826 5826 5825 5824 5825 5825 5825 5825 5825 5825 5825 5825 5826 5827 5828 5830 5831 5832 5833 5833 5833 5833 5834 5835 5837 5838 5839 5840 5841 5842 5843 5844 5846 5848 5850 5852 5854 5855 5856 5856 5858 5860 5861 5863 5865 5869 5871 5869 5867 5869 5872 5874 5876 5880 5882 5884 5886 5887 5888 5890 5891 5891 5891 5890 5890 5892 5892 5894 5896 5896 5896 5897 5897 5897 5897 5897 5897 5897 5898
5831 5830 5829 5829 5828 5826 5825 5824 5824 5823 5822 5821 5821 5821 5821 5821 5821 5821 5820 5821 5821 5822 5823 5824 5826 5826 5828 5829 5828 5829 5830 5831 5833 5834 5834 5835 5836 5837 5838 5839 5841 5842 5844 5846 5847 5849 5850 5851 5853 5856 5859 5860 5861 5863 5866 5867 5865 5865 5868 5871 5872 5874 5879 5881 5883 5885 5886 5887 5889 5890 5891 5892 5891 5890 5891 5892 5894 5895 5896 5896 5896 5897 5897 5897 5897 5897 5898 5898
5828 5827 5826 5825 5824 5823 5822 5821 5820 5819 5818 5817 5817 5817 5817 5816 5817 5816 5816 5816 5816 5818 5819 5820 5821 5822 5824 5823 5823 5825 5827 5828 5829 5829 5830 5832 5833 5833 5834 5836 5837 5839 5840 5842 5842 5843 5845 5847 5850 5854 5855 5856 5858 5860 5863 5863 5863 5864 5867 5869 5870 5872 5877 5880 5881 5883 5885 5886 5888 5890 5891 5891 5890 5890 5891 5892 5893 5895 5896 5896 5896 5897 5897 5897 5897 5897 5897 5898
5824 5823 5823 5822 5821 5819 5818 5817 5816 5815 5814 5813 5812 5813 5813 5812 5812 5812 5812 5811 5812 5814 5815 5816 5816 5817 5819 5818 5818 5822 5823 5824 5825 5825 5828 5829 5830 5831 5831 5833 5834 5835 5837 5838 5839 5841 5842 5844 5847 5849 5850 5853 5856 5857 5860 5860 5861 5863 5865 5867 5868 5871 5875 5877 5879 5881 5883 5885 5887 5890 5890 5890 5890 5890 5890 5892 5893 5894 5895 5896 5896 5897 5897 5897 5897 5897 5897 5898
5820 5819 5818 5817 5816 5815 5814 5813 5812 5810 5809 5808 5808 5808 5808 5807 5807 5807 5806 5806 5807 5809 5810 5811 5812 5813 5813 5812 5814 5818 5819 5820 5821 5823 5825 5826 5828 5828 5828 5829 5830 5831 5832 5833 5836 5838 5840 5842 5844 5846 5849 5852 5852 5853 5856 5857 5859 5861 5862 5865 5867 5870 5874 5874 5876 5880 5881 5883 5885 5888 5889 5889 5890 5889 5889 5891 5892 5893 5894 5896 5896 5897 5897 5897 5897 5897 5897 5898
5816 5815 5813 5813 5812 5810 5809 5808 5807 5806 5805 5803 5802 5803 5803 5802 5801 5801 5800 5800 5802 5804 5805 5806 5807 5808 5808 5808 5810 5812 5813 5816 5818 5820 5821 5822 5824 5824 5824 5825 5826 5828 5829 5830 5832 5834 5836 5839 5842 5845 5846 5847 5848 5851 5854 5855 5857 5858 5860 5864 5866 5869 5872 5872 5874 5877 5879 5881 5883 5887 5888 5888 5889 5888 5888 5889 5891 5892 5894 5895 5896 5897 5897 5897 5897 5897 5897 5898
5812 5810 5808 5807 5806 5805 5804 5803 5802 5801 5799 5798 5797 5797 5798 5796 5796 5795 5794 5794 5797 5798 5800 5801 5803 5803 5803 5804 5805 5806 5808 5812 5814 5815 5817 5818 5819 5820 5821 5822 5824 5825 5826 5827 5829 5831 5834 5836 5839 5841 5842 5844 5846 5849 5850 5851 5855 5857 5860 5863 5865 5868 5870 5870 5873 5875 5876 5878 5881 5884 5886 5887 5888 5887 5887 5888 5890 5892 5893 5895 5896 5897 5897 5897 5897 5897 5897 5898
5807 5805 5803 5802 5801 5799 5798 5797 5796 5795 5794 5793 5792 5791 5791 5790 5790 5789 5787 5787 5790 5792 5794 5795 5797 5798 5798 5799 5801 5801 5803 5807 5809 5811 5812 5813 5815 5816 5817 5818 5819 5820 5821 5823 5826 5828 5831 5834 5836 5837 5838 5840 5842 5844 5846 5852 5857 5859 5860 5862 5864 5866 5868 5870 5872 5873 5874 5876 5878 5881 5884 5886 5886 5886 5886 5887 5889 5891 5892 5894 5895 5896 5897 5897 5897 5896 5897 5898
5801 5799 5797 5795 5794 5793 5791 5790 5790 5789 5788 5786 5785 5785 5785 5784 5784 5782 5780 5780 5784 5785 5786 5789 5791 5792 5793 5794 5796 5797 5798 5800 5803 5805 5806 5808 5809 5810 5812 5813 5814 5815 5817 5819 5823 5825 5828 5830 5831 5832 5835 5838 5841 5844 5849 5855 5858 5858 5859 5861 5863 5865 5867 5869 5870 5871 5872 5873 5876 5879 5882 5884 5885 5884 5885 5886 5888 5889 5890 5892 5894 5895 5896 5897 5896 5896 5896 5897
5796 5793 5790 5789 5787 5786 5784 5783 5782 5781 5781 5780 5779 5778 5778 5777 5776 5776 5773 5773 5776 5778 5779 5781 5784 5785 5787 5789 5791 5792 5793 5793 5795 5798 5800 5802 5803 5805 5806 5808 5809 5811 5813 5817 5820 5822 5824 5825 5827 5833 5838 5840 5843 5846 5849 5853 5855 5855 5856 5858 5861 5863 5865 5867 5868 5868 5869 5870 5874 5877 5879 5881 5883 5883 5883 5885 5886 5887 5889 5891 5893 5894 5896 5896 5896 5896 5896 5896
5790 5787 5785 5782 5781 5780 5778 5776 5775 5774 5773 5773 5772 5771 5771 5770 5769 5769 5768 5765 5766 5771 5772 5773 5776 5778 5780 5783 5785 5787 5787 5787 5788 5790 5794 5796 5797 5798 5800 5802 5805 5807 5812 5815 5816 5817 5817 5819 5827 5835 5837 5837 5839 5841 5845 5848 5850 5851 5853 5855 5858 5861 5864 5865 5865 5865 5866 5868 5872 5874 5875 5877 5880 5881 5881 5882 5884 5886 5888 5890 5892 5893 5895 5896 5896 5896 5895 5896
5784 5782 5779 5776 5775 5773 5771 5769 5768 5766 5766 5765 5765 5764 5763 5763 5762 5763 5764 5761 5757 5761 5764 5765 5768 5771 5773 5776 5778 5780 5781 5781 5780 5782 5787 5789 5790 5792 5794 5797 5800 5804 5808 5809 5810 5811 5812 5819 5830 5833 5831 5832 5833 5835 5839 5843 5845 5847 5849 5852 5855 5859 5862 5863 5863 5863 5864 5867 5870 5871 5873 5875 5878 5879 5879 5881 5883 5885 5886 5887 5889 5891 5892 5894 5895 5896 5895 5895
5778 5776 5774 5771 5768 5767 5764 5762 5760 5758 5757 5756 5756 5756 5756 5755 5754 5755 5758 5757 5753 5753 5756 5757 5759 5762 5766 5767 5770 5773 5774 5774 5773 5775 5779 5782 5785 5787 5788 5791 5795 5799 5801 5802 5805 5808 5812 5823 5829 5826 5826 5827 5828 5831 5834 5838 5840 5842 5844 5848 5853 5857 5860 5861 5862 5861 5860 5864 5867 5868 5870 5872 5874 5875 5876 5879 5881 5882 5882 5884 5886 5888 5889 5891 5893 5894 5894 5894
5773 5771 5769 5766 5763 5761 5759 5756 5754 5752 5750 5749 5748 5748 5748 5747 5747 5747 5749 5750 5749 5748 5749 5750 5750 5753 5756 5759 5762 5765 5766 5767 5767 5769 5773 5776 5778 5780 5782 5786 5789 5792 5795 5798 5801 5804 5811 5821 5821 5819 5822 5824 5825 5828 5831 5834 5836 5838 5841 5845 5851 5855 5857 5859 5859 5857 5857 5861 5864 5865 5866 5868 5869 5871 5874 5877 5878 5878 5879 5880 5882 5885 5887 5888 5890 5892 5893 5893
5769 5767 5765 5762 5759 5757 5755 5752 5750 5747 5745 5743 5741 5741 5741 5740 5739 5740 5741 5742 5742 5741 5742 5743 5743 5745 5748 5751 5755 5756 5758 5760 5760 5763 5767 5769 5772 5775 5777 5780 5782 5786 5790 5793 5795 5799 5808 5815 5814 5814 5818 5820 5822 5825 5827 5830 5833 5835 5838 5843 5849 5852 5853 5855 5855 5854 5855 5857 5860 5861 5862 5864 5867 5869 5873 5875 5874 5875 5877 5878 5881 5884 5886 5887 5889 5891 5892 5892
5766 5763 5761 5759 5756 5754 5752 5749 5746 5744 5741 5738 5736 5735 5735 5734 5733 5733 5734 5735 5736 5735 5735 5736 5737 5738 5741 5744 5746 5748 5751 5751 5752 5756 5760 5763 5767 5769 5772 5775 5777 5782 5785 5787 5789 5793 5803 5809 5808 5809 5812 5815 5817 5820 5824 5827 5829 5831 5837 5842 5845 5847 5849 5850 5851 5851 5851 5854 5857 5857 5857 5860 5863 5866 5871 5872 5872 5874 5875 5877 5880 5882 5884 5887 5889 5890 5891 5892
5763 5760 5758 5756 5754 5752 5749 5746 5744 5742 5739 5736 5733 5732 5730 5728 5727 5727 5728 5729 5730 5729 5728 5729 5731 5732 5734 5736 5739 5741 5742 5742 5745 5749 5753 5758 5761 5762 5766 5770 5773 5776 5778 5780 5781 5787 5797 5802 5801 5803 5808 5810 5812 5817 5822 5825 5826 5831 5837 5838 5839 5842 5844 5846 5848 5847 5848 5851 5853 5852 5853 5856 5858 5863 5867 5869 5871 5872 5873 5876 5878 5880 5883 5886 5888 5889 5890 5891
5760 5758 5755 5753 5751 5749 5746 5744 5741 5739 5737 5734 5731 5729 5726 5724 5722 5722 5722 5722 5723 5724 5723 5723 5724 5725 5727 5729 5732 5733 5733 5735 5739 5741 5746 5752 5754 5756 5760 5763 5767 5770 5772 5773 5775 5783 5794 5797 5797 5800 5804 5807 5811 5817 5821 5821 5824 5831 5834 5831 5832 5837 5839 5841 5842 5843 5846 5846 5845 5848 5850 5850 5854 5860 5864 5866 5867 5868 5871 5874 5877 5879 5882 5884 5887 5888 5889 5890
5758 5755 5753 5750 5748 5746 5743 5741 5739 5737 5734 5731 5729 5726 5723 5721 5719 5717 5717 5717 5717 5718 5719 5719 5719 5720 5721 5722 5724 5726 5727 5729 5731 5735 5739 5744 5747 5750 5752 5754 5758 5762 5765 5767 5771 5781 5789 5791 5792 5794 5799 5805 5811 5815 5815 5816 5821 5827 5827 5825 5829 5832 5833 5835 5836 5839 5842 5838 5838 5846 5847 5846 5850 5857 5860 5861 5864 5867 5871 5874 5875 5878 5880 5882 5885 5887 5889 5890
5755 5752 5750 5748 5745 5743 5740 5737 5736 5734 5732 5729 5726 5724 5721 5718 5716 5713 5712 5712 5712 5712 5714 5715 5714 5715 5716 5717 5718 5719 5721 5722 5724 5729 5732 5734 5739 5743 5743 5746 5750 5754 5759 5761 5765 5775 5782 5783 5784 5788 5795 5802 5805 5808 5809 5812 5818 5821 5820 5820 5823 5824 5826 5829 5830 5835 5834 5827 5834 5844 5845 5843 5845 5851 5855 5858 5864 5868 5871 5874 5874 5876 5878 5879 5882 5884 5887 5889
5751 5749 5746 5744 5742 5740 5736 5734 5731 5730 5728 5726 5723 5721 5719 5716 5714 5711 5708 5707 5707 5707 5709 5709 5709 5710 5711 5712 5712 5713 5715 5716 5718 5722 5724 5726 5731 5734 5735 5738 5743 5747 5753 5756 5760 5769 5773 5774 5778 5783 5790 5795 5797 5799 5802 5807 5812 5814 5814 5815 5817 5818 5820 5822 5824 5828 5823 5820 5832 5843 5843 5839 5839 5846 5854 5858 5864 5868 5869 5872 5873 5875 5877 5878 5880 5882 5885 5888
5747 5745 5743 5741 5738 5736 5733 5730 5728 5725 5723 5721 5719 5717 5715 5713 5711 5709 5706 5704 5702 5703 5705 5705 5705 5705 5705 5707 5708 5708 5708 5710 5712 5715 5717 5719 5722 5725 5727 5729 5735 5740 5746 5750 5754 5760 5765 5769 5773 5778 5783 5786 5788 5792 5795 5799 5803 5806 5808 5809 5810 5811 5813 5814 5817 5819 5816 5819 5832 5840 5839 5834 5833 5845 5853 5855 5862 5866 5868 5871 5872 5874 5876 5877 5879 5880 5883 5886
5744 5741 5739 5737 5735 5732 5729 5727 5724 5722 5719 5717 5714 5712 5711 5709 5708 5706 5704 5702 5699 5699 5700 5700 5700 5700 5700 5702 5704 5704 5703 5704 5706 5708 5711 5713 5715 5717 5720 5723 5730 5734 5739 5743 5746 5752 5758 5762 5766 5772 5776 5779 5781 5786 5789 5793 5797 5800 5802 5804 5805 5806 5807 5809 5812 5814 5815 5819 5830 5837 5835 5828 5830 5843 5851 5854 5860 5865 5867 5869 5870 5872 5874 5875 5877 5879 5882 5884
5740 5737 5735 5733 5731 5728 5725 5723 5720 5717 5715 5713 5710 5707 5706 5704 5703 5701 5700 5699 5697 5695 5695 5695 5695 5696 5696 5697 5699 5700 5699 5699 5701 5703 5704 5707 5708 5710 5714 5719 5724 5728 5732 5736 5739 5745 5750 5753 5760 5766 5769 5773 5777 5782 5786 5790 5794 5798 5801 5802 5803 5803 5805 5808 5811 5812 5814 5818 5827 5833 5829 5822 5827 5840 5849 5854 5859 5862 5865 5867 5868 5869 5871 5873 5874 5875 5878 5881
5735 5733 5731 5728 5726 5724 5721 5718 5715 5713 5710 5708 5706 5703 5701 5699 5697 5696 5695 5694 5693 5692 5691 5691 5690 5691 5690 5691 5694 5695 5695 5695 5696 5698 5699 5700 5701 5704 5708 5712 5716 5721 5726 5729 5732 5738 5742 5749 5757 5760 5763 5769 5774 5779 5783 5786 5789 5794 5796 5797 5798 5802 5807 5809 5810 5811 5814 5817 5822 5825 5821 5818 5826 5839 5848 5853 5855 5858 5862 5865 5866 5867 5868 5869 5869 5870 5873 5876
5731 5729 5726 5724 5722 5719 5716 5713 5710 5708 5705 5703 5701 5699 5696 5694 5692 5691 5689 5688 5687 5687 5687 5686 5685 5686 5685 5686 5688 5689 5690 5690 5691 5692 5693 5694 5695 5697 5701 5705 5709 5714 5718 5721 5726 5731 5736 5745 5752 5755 5760 5766 5769 5773 5777 5780 5785 5788 5789 5791 5797 5803 5805 5805 5807 5810 5812 5813 5815 5819 5821 5821 5827 5838 5846 5849 5851 5855 5859 5862 5864 5866 5866 5867 5868 5869 5871 5873
5727 5725 5722 5720 5717 5714 5711 5709 5706 5703 5701 5699 5697 5694 5692 5690 5688 5686 5684 5682 5681 5680 5681 5680 5680 5680 5680 5680 5681 5683 5684 5685 5686 5686 5687 5688 5690 5692 5695 5699 5703 5707 5711 5715 5719 5723 5730 5740 5747 5750 5754 5759 5762 5767 5772 5776 5780 5784 5787 5792 5797 5798 5798 5800 5804 5806 5807 5807 5809 5815 5820 5821 5824 5834 5842 5846 5848 5852 5856 5859 5862 5864 5865 5866 5867 5869 5870 5871
5723 5721 5718 5716 5713 5709 5706 5704 5701 5699 5696 5694 5692 5689 5687 5684 5682 5681 5679 5677 5675 5674 5674 5674 5673 5673 5673 5674 5674 5675 5678 5679 5680 5680 5681 5682 5684 5686 5689 5693 5697 5701 5704 5708 5713 5718 5725 5734 5740 5744 5748 5752 5757 5762 5767 5771 5776 5781 5787 5791 5791 5790 5793 5795 5797 5800 5801 5801 5804 5811 5816 5817 5821 5830 5839 5843 5846 5849 5853 5857 5860 5862 5863 5865 5867 5868 5869 5871
5719 5717 5714 5711 5708 5705 5702 5699 5697 5694 5691 5689 5686 5684 5681 5679 5677 5675 5673 5671 5669 5668 5668 5667 5667 5666 5666 5666 5666 5667 5670 5672 5673 5674 5675 5677 5679 5681 5684 5688 5691 5695 5698 5702 5707 5713 5719 5727 5733 5738 5743 5746 5751 5756 5762 5769 5773 5778 5781 5782 5783 5786 5791 5793 5794 5798 5799 5799 5802 5807 5811 5813 5818 5828 5836 5840 5844 5847 5850 5854 5857 5860 5862 5865 5867 5867 5868 5870
5715 5712 5710 5707 5704 5700 5698 5695 5692 5689 5686 5683 5681 5678 5676 5674 5671 5669 5667 5665 5664 5662 5661 5660 5659 5658 5657 5657 5658 5659 5661 5665 5667 5668 5670 5672 5675 5678 5680 5683 5686 5689 5692 5696 5702 5708 5713 5719 5727 5734 5737 5741 5746 5752 5759 5765 5768 5772 5774 5774 5777 5781 5785 5788 5790 5794 5796 5797 5800 5803 5806 5810 5818 5826 5833 5837 5841 5845 5847 5851 5855 5858 5861 5863 5866 5867 5868 5869
5712 5708 5705 5703 5700 5696 5693 5691 5688 5684 5681 5679 5676 5674 5672 5669 5666 5663 5662 5660 5658 5657 5654 5653 5651 5650 5649 5649 5649 5651 5654 5657 5660 5663 5665 5668 5671 5673 5675 5678 5681 5683 5686 5691 5697 5702 5706 5711 5720 5728 5731 5736 5742 5748 5754 5757 5760 5765 5768 5769 5774 5778 5780 5782 5783 5787 5790 5792 5796 5799 5801 5808 5817 5824 5828 5832 5837 5841 5844 5848 5851 5854 5857 5860 5863 5865 5867 5869
5708 5705 5702 5699 5696 5692 5689 5686 5683 5680 5677 5674 5672 5669 5667 5664 5661 5658 5656 5654 5652 5650 5648 5646 5644 5643 5643 5642 5643 5644 5647 5650 5654 5658 5661 5663 5665 5667 5670 5673 5675 5678 5681 5685 5690 5696 5700 5705 5714 5722 5726 5732 5740 5744 5748 5751 5754 5758 5762 5765 5771 5774 5776 5777 5779 5784 5787 5788 5792 5795 5796 5805 5815 5821 5825 5828 5832 5837 5841 5844 5847 5850 5853 5856 5859 5862 5864 5867
5705 5702 5699 5695 5691 5688 5684 5681 5679 5676 5673 5670 5668 5665 5663 5660 5657 5654 5652 5649 5646 5644 5641 5640 5638 5637 5637 5637 5638 5638 5640 5644 5648 5652 5655 5657 5659 5661 5664 5667 5671 5673 5676 5679 5683 5689 5695 5700 5708 5717 5723 5729 5736 5738 5741 5746 5749 5754 5757 5761 5764 5767 5770 5773 5776 5781 5783 5784 5790 5792 5793 5804 5815 5819 5822 5824 5827 5832 5837 5840 5843 5846 5849 5852 5855 5858 5861 5863
5701 5698 5695 5692 5688 5684 5680 5678 5675 5672 5669 5666 5664 5661 5658 5655 5652 5650 5647 5644 5641 5638 5635 5634 5633 5632 5633 5633 5633 5634 5636 5639 5643 5646 5649 5651 5653 5655 5659 5662 5666 5668 5670 5673 5677 5683 5689 5694 5702 5712 5718 5723 5728 5731 5735 5740 5743 5746 5750 5754 5758 5763 5767 5771 5774 5776 5777 5781 5787 5789 5793 5805 5814 5815 5818 5821 5824 5828 5833 5837 5840 5842 5845 5848 5850 5854 5857 5859
5699 5695 5691 5688 5685 5681 5678 5675 5672 5668 5665 5662 5660 5657 5654 5651 5648 5645 5643 5640 5636 5633 5631 5630 5629 5628 5629 5629 5630 5631 5633 5635 5638 5641 5644 5646 5648 5651 5654 5657 5661 5663 5665 5668 5672 5678 5682 5687 5694 5704 5710 5714 5720 5725 5728 5731 5734 5738 5744 5749 5754 5759 5763 5768 5770 5771 5774 5781 5784 5786 5795 5806 5809 5810 5814 5817 5819 5824 5827 5831 5835 5838 5841 5844 5846 5849 5852 5855
5696 5692 5688 5684 5682 5679 5676 5673 5670 5666 5662 5659 5656 5653 5650 5646 5643 5641 5639 5635 5632 5629 5628 5627 5626 5625 5625 5626 5627 5628 5630 5632 5633 5636 5639 5640 5643 5645 5648 5651 5655 5658 5660 5663 5667 5672 5676 5681 5687 5696 5704 5709 5714 5719 5721 5724 5729 5735 5740 5745 5750 5755 5759 5762 5764 5767 5774 5780 5781 5786 5798 5803 5803 5806 5810 5812 5815 5819 5822 5826 5830 5833 5837 5839 5841 5844 5846 5849
5693 5689 5684 5681 5678 5675 5672 5669 5666 5662 5659 5656 5653 5650 5646 5642 5639 5637 5635 5632 5629 5626 5625 5624 5624 5623 5623 5624 5625 5626 5627 5628 5630 5632 5633 5635 5637 5640 5643 5646 5649 5652 5655 5658 5661 5666 5670 5675 5680 5688 5698 5705 5709 5713 5717 5720 5725 5731 5736 5741 5746 5751 5754 5757 5762 5767 5773 5777 5778 5787 5798 5800 5800 5804 5806 5808 5812 5816 5819 5823 5826 5829 5832 5834 5837 5838 5840 5843
5690 5686 5682 5678 5675 5672 5669 5664 5661 5658 5655 5652 5649 5646 5643 5640 5636 5633 5631 5628 5626 5624 5623 5623 5623 5622 5622 5622 5623 5624 5625 5625 5626 5627 5628 5630 5633 5635 5638 5640 5643 5647 5650 5653 5656 5659 5663 5670 5675 5682 5692 5700 5705 5709 5712 5715 5721 5727 5732 5738 5742 5745 5748 5753 5760 5766 5770 5773 5778 5787 5795 5798 5799 5803 5804 5806 5810 5813 5816 5819 5821 5824 5828 5830 5832 5834 5837 5840
5688 5684 5680 5676 5672 5669 5666 5661 5658 5655 5652 5649 5646 5644 5640 5637 5633 5631 5628 5625 5623 5622 5621 5621 5621 5621 5621 5621 5621 5622 5623 5623 5624 5624 5624 5626 5628 5631 5633 5636 5638 5641 5645 5648 5651 5653 5657 5665 5670 5675 5685 5695 5701 5705 5707 5711 5717 5724 5730 5734 5736 5739 5745 5751 5757 5763 5767 5769 5776 5786 5794 5797 5799 5800 5802 5804 5806 5809 5812 5815 5817 5821 5824 5827 5829 5831 5834 5837
5687 5683 5679 5674 5670 5667 5663 5659 5656 5653 5650 5646 5644 5641 5638 5635 5631 5628 5626 5623 5620 5620 5620 5620 5620 5619 5619 5619 5619 5619 5619 5620 5621 5621 5621 5622 5624 5626 5628 5631 5633 5635 5639 5643 5645 5648 5652 5659 5664 5669 5678 5689 5696 5700 5704 5707 5713 5721 5726 5728 5731 5736 5743 5748 5754 5760 5763 5766 5775 5785 5792 5796 5796 5797 5799 5800 5803 5806 5809 5812 5815 5818 5821 5824 5826 5829 5831 5834
5686 5682 5678 5673 5669 5665 5662 5658 5655 5651 5648 5645 5642 5639 5636 5633 5629 5626 5624 5621 5619 5618 5618 5618 5618 5617 5617 5617 5616 5616 5616 5617 5618 5618 5618 5619 5620 5621 5623 5626 5627 5629 5633 5637 5640 5644 5648 5653 5659 5664 5672 5682 5691 5696 5700 5704 5710 5717 5720 5722 5727 5733 5739 5745 5750 5756 5759 5764 5774 5782 5787 5793 5794 5794 5796 5798 5800 5803 5806 5810 5813 5816 5819 5821 5824 5826 5828 5831
5685 5681 5677 5672 5668 5664 5661 5657 5654 5650 5647 5643 5640 5637 5634 5631 5628 5625 5623 5620 5618 5617 5616 5616 5616 5615 5615 5614 5614 5614 5614 5614 5615 5615 5615 5616 5617 5618 5619 5621 5622 5625 5628 5631 5635 5640 5643 5648 5654 5658 5665 5677 5686 5690 5696 5702 5706 5711 5714 5718 5724 5729 5736 5742 5747 5752 5755 5761 5770 5777 5782 5789 5791 5791 5794 5796 5798 5801 5805 5808 5811 5814 5817 5820 5822 5824 5826 5829